sat.trackr.live / text

‹ back to catalog

STARLINK-37662

NORAD 69137 · 2026-110P

PAYLOAD ACTIVE UNKNOWN

§ Identity

Operator
Country
US
Launch date
2026-05-20
Launch site
AFWTR
Launch vehicle
Mass (kg)
RCS (m²)

Purposes: comms

External: N2YO · Heavens-Above · Gunter

§ Orbital elements

Epoch: 2026-09-19T15:08:08.986848Z

Period
93.91 min
Inclination
97.2871°
Eccentricity
0.0000719
Mean motion
15.33459783 rev/d
Perigee alt
465.0 km
Apogee alt
466.0 km
Semi-major
6,843.6 km
B*
6.4350e-4
RAAN
97.7144°
Arg perigee
35.8832°
Mean anomaly
324.2459°
Rev number
2,008

§ Raw data

STARLINK-376621 69137U 26110P   26262.63065957  .00020766  00000+0  64350-3 0  99962 69137  97.2871  97.7144 0000719  35.8832 324.2459 15.33459783 20087

JSON: /api/v1/satellites/69137 · /tle

For live sub-satellite position, see the globe view (requires WebGL).

§ Visibility from observer

Set your observer location to see the next 7 days of passes ≥ 10°. The values pass through the URL so the page stays shareable.

No JS? Fill the form by hand. The geolocation button needs JavaScript.